This is the latest recevied weather packets stored in our database for station/object DC1MPP-9. If no packets are shown the sender has not sent any weather packets the latest 10 day(s).
| Time | Temp. | Humidity | Pressure | Rain* | Wind** | Luminosity | Snow |
|---|---|---|---|---|---|---|---|
| 1787409060 | 22.22° C | 54% | 962 hPa | - | - | - | - |
| 1787408578 | 22.22° C | 54% | 963 hPa | - | - | - | - |
| 1787408337 | 22.22° C | 58% | 963 hPa | - | - | - | - |
| 1787408096 | 22.22° C | 60% | 962 hPa | - | - | - | - |
| 1787407854 | 21.67° C | 61% | 963 hPa | - | - | - | - |
| 1787407613 | 21.67° C | 59% | 963 hPa | - | - | - | - |
| 1787407373 | 21.11° C | 60% | 963 hPa | - | - | - | - |
| 1787407131 | 21.11° C | 58% | 962 hPa | - | - | - | - |
| 1787406890 | 21.11° C | 58% | 962 hPa | - | - | - | - |
| 1787406408 | 21.67° C | 61% | 962 hPa | - | - | - | - |
| 1787406167 | 22.22° C | 60% | 962 hPa | - | - | - | - |
| 1787405926 | 22.22° C | 54% | 962 hPa | - | - | - | - |
| 1787405685 | 22.22° C | 56% | 962 hPa | - | - | - | - |
| 1787405444 | 22.78° C | 56% | 962 hPa | - | - | - | - |
| 1787405203 | 23.33° C | 51% | 962 hPa | - | - | - | - |
| 1787404962 | 23.33° C | 52% | 962 hPa | - | - | - | - |
| 1787404721 | 23.33° C | 50% | 962 hPa | - | - | - | - |
| 1787404480 | 23.33° C | 50% | 962 hPa | - | - | - | - |
| 1787404238 | 22.78° C | 54% | 962 hPa | - | - | - | - |
| 1787403997 | 22.78° C | 53% | 962 hPa | - | - | - | - |
| 1787403515 | 22.22° C | 49% | 962 hPa | - | - | - | - |
| 1787403274 | 23.33° C | 52% | 962 hPa | - | - | - | - |
| 1787403033 | 22.78° C | 51% | 962 hPa | - | - | - | - |
| 1787402792 | 22.22° C | 54% | 962 hPa | - | - | - | - |
| 1787402551 | 22.78° C | 46% | 962 hPa | - | - | - | - |
* Rain since midnight (hover to see other rain measurements)
** Current wind speed in m/s (hover to see current wind gust speed)